Flag for Canada Weather past 2 weeks in Aklavik, Northwest Territories, Canada

Now
9 °F

Overcast.


Feels Like: 0 °F
Forecast: 2 / 6 °F
Wind: 5 mph from North

Location: Inuvik

Current Time: Mar 29, 2015 at 7:19:56 PM

Latest Report: Mar 29, 2015 at 6:00 PM


Visibility: 10 mi

Pressure: 29.91 "Hg

Humidity: 72%

Dew point: 1 °F

Location of AklavikLocation

Historic Weather in Aklavik — Graph

°F

Aklavik temperature yesterday

Maximum temperature yesterday: 7 °F (at 5:00 PM)
Minimum temperature yesterday: 3 °F (at 12:00 AM)
Average temperature yesterday: 4 °F

Past Weeks' High & Low Weather Summary

 TemperatureHumidityPressure
High25 °F (Mar 25, 8:00 PM)85% (Mar 18, 8:00 AM)30.32 "Hg (Mar 18, 8:00 AM)
Low-18 °F (Mar 15, 7:00 AM)38% (Mar 16, 7:00 PM)29.50 "Hg (Mar 26, 9:00 PM)
Average4 °F68%30.04 "Hg
* Reported Mar 14 6:00 PM — Mar 29 6:00 PM, Aklavik, Weather by CustomWeather, © 2015

Note: Actual official high and low records may vary slightly from our data, if they occured in-between our weather recording intervals... More about our weather records

Advertising

Aklavik weather history for previous 24 hours

 ConditionsComfort  
Time TempWeatherWind HumidityBarometerVisibility
6:00 PM
Sun, Mar 29
9 °FOvercast.5 mph72%29.91 "Hg10 mi
5:00 PM9 °FOvercast.7 mph72%29.90 "Hg15 mi
4:00 PM10 °FMostly cloudy.7 mph72%29.89 "Hg15 mi
3:00 PM9 °FLight snow. More clouds than sun.7 mph72%29.88 "Hg15 mi
2:00 PM10 °FLight snow. More clouds than sun.8 mph72%29.87 "Hg15 mi
1:00 PM9 °FLight snow. Overcast.8 mph72%29.86 "Hg15 mi
12:00 PM9 °FLight snow. More clouds than sun.6 mph72%29.86 "Hg10 mi
11:00 AM7 °FLight snow. Mostly cloudy.3 mph78%29.85 "Hg10 mi
10:00 AM5 °FLight snow. Mostly cloudy.No wind78%29.85 "Hg15 mi
9:56 AM5 °FLight snow. Mostly cloudy.No wind78%29.85 "Hg15 mi
9:00 AM5 °FMostly cloudy.No wind78%29.85 "Hg15 mi
8:00 AM5 °FMostly cloudy.2 mph78%29.85 "Hg15 mi
7:00 AM5 °FLight snow. Mostly cloudy.No wind78%29.84 "Hg6 mi
6:03 AM5 °FSnow. Mostly cloudy.No wind72%29.84 "Hg10 mi
5:00 AM3 °FMostly cloudy.3 mph78%29.84 "Hg15 mi
4:00 AM3 °FMostly cloudy.5 mph78%29.84 "Hg15 mi
2:00 AM3 °FMostly cloudy.3 mph78%29.85 "Hg15 mi
1:00 AM1 °FMostly cloudy.6 mph85%29.85 "Hg15 mi
12:00 AM1 °FMore clouds than sun.6 mph85%29.86 "Hg15 mi
11:00 PM
Sat, Mar 28
3 °FOvercast.6 mph78%29.87 "Hg15 mi
10:00 PM3 °FOvercast.3 mph78%29.87 "Hg15 mi
9:00 PM3 °FOvercast.7 mph78%29.86 "Hg15 mi
8:00 PM5 °FOvercast.8 mph78%29.87 "Hg15 mi
7:00 PM5 °FOvercast.7 mph78%29.87 "Hg15 mi
Weather by CustomWeather, © 2015

See weather overviewHow to use our weather pages